Theta_e
277 278 278 278 278 277 278 278 278 277 279 279 276 277 279 278 274 272 277 279 277 279 282 284 285 285 285 286 287 288 288 288 288 288 288 289 289 290 290 291 291 292 292 293 293 293 293 293 293 294 294 293 292 292 290 290 289 291 291 289 290 290 290 291 294 294 295 295 296 296 295 295 295 296 296 295 295 294 293 294 296 296 298 299 299 299 299
276 277 276 277 276 276 277 277 278 279 278 278 278 278 279 279 277 278 278 278 278 280 282 284 285 287 287 287 287 287 287 287 288 288 288 288 288 289 290 290 291 292 292 293 293 292 290 291 291 292 293 295 295 294 294 292 292 294 291 292 290 291 291 292 293 293 293 292 293 293 293 294 294 294 294 294 293 293 294 293 293 294 294 295 295 297 298
273 274 276 276 275 276 274 276 277 277 278 278 279 279 279 279 278 279 278 278 278 283 285 285 287 287 287 287 286 287 287 287 287 287 287 288 288 288 289 290 291 292 292 292 292 290 290 291 292 292 292 292 292 293 294 294 294 294 292 293 292 290 290 290 290 291 292 292 292 291 292 292 293 293 294 294 293 293 293 293 293 293 292 293 294 294 295
269 273 274 275 275 275 274 275 276 276 276 274 276 275 278 277 276 278 278 276 277 282 285 284 284 284 284 284 285 285 286 286 286 285 286 286 286 286 286 287 288 288 288 288 288 288 289 289 289 290 290 290 288 288 291 291 292 292 292 292 293 292 292 291 290 290 289 289 289 290 291 292 292 292 291 291 292 292 292 292 293 291 291 292 293 293 294
269 274 275 273 273 271 270 271 275 276 277 277 278 278 279 279 279 277 274 275 281 283 284 282 282 282 282 283 283 284 284 284 283 283 282 282 282 282 282 282 282 283 283 284 284 284 285 287 285 285 285 283 284 286 287 288 288 288 289 289 289 289 288 288 288 288 288 287 287 287 288 289 290 290 290 291 291 291 291 291 289 291 292 292 293 293 292
270 271 271 271 271 265 266 277 277 277 276 276 275 275 277 279 279 278 280 280 281 280 280 279 278 279 280 281 283 283 282 282 281 282 282 282 282 281 281 281 280 280 280 281 281 282 284 284 281 281 281 281 282 283 284 284 284 285 286 285 283 282 283 283 284 284 285 285 285 286 286 287 287 288 288 289 289 289 289 289 289 290 290 291 291 291 292
269 268 270 270 265 266 276 278 280 280 278 278 277 278 278 278 278 278 277 278 278 280 280 280 279 280 281 283 282 282 282 282 281 281 281 281 281 280 280 279 279 279 279 279 279 280 282 282 279 279 279 279 280 281 283 283 284 284 284 282 281 281 281 282 282 282 283 283 284 284 285 286 286 287 287 287 288 288 288 289 290 290 291 291 291 291 290
275 272 271 263 265 272 278 279 279 280 279 278 277 276 276 276 277 278 276 277 278 279 279 280 280 280 281 282 283 282 282 282 281 281 280 280 280 279 279 278 278 278 277 277 278 279 281 279 277 278 277 278 279 280 282 282 282 282 282 280 280 281 281 282 282 282 283 283 284 285 285 286 286 286 287 286 287 287 287 288 288 288 288 288 289 290 290
269 272 271 270 276 275 276 274 276 276 274 275 275 270 273 274 276 277 277 278 278 278 279 279 279 280 279 278 281 282 282 282 282 281 281 281 281 281 280 279 278 278 278 277 278 279 278 277 276 277 278 278 278 279 280 281 281 280 279 279 279 280 280 281 282 282 283 283 284 285 286 286 286 286 286 286 286 286 286 287 287 287 288 288 289 289 289
275 271 269 270 269 266 270 274 277 278 279 279 279 276 274 275 276 278 278 276 277 277 278 278 278 278 276 274 277 280 281 282 281 282 282 282 281 281 280 279 278 278 278 278 278 278 276 276 276 277 277 277 278 278 279 279 278 278 277 277 278 278 279 280 281 282 283 284 284 285 285 285 285 285 285 285 285 285 285 286 286 287 287 288 288 288 288
274 272 268 268 266 269 274 275 276 277 278 280 281 275 273 275 275 279 279 278 278 278 278 278 278 276 272 273 277 281 281 281 281 281 280 280 280 280 279 278 277 277 277 277 277 277 276 275 276 277 276 277 277 277 277 276 276 276 275 276 276 276 277 279 280 281 282 283 284 285 285 285 285 284 284 285 285 285 285 285 286 286 286 286 287 287 286
274 273 270 269 272 272 275 276 276 278 279 280 278 267 269 274 276 278 278 277 279 279 280 279 277 275 272 274 277 281 281 281 281 281 280 279 279 279 278 278 278 277 277 277 276 275 275 275 276 276 276 276 276 276 276 275 274 274 274 275 275 276 277 277 279 280 281 283 284 284 284 284 283 284 284 284 284 284 284 284 285 285 285 285 285 286 286
273 273 271 273 274 279 276 276 277 279 281 278 268 265 271 275 276 277 278 278 280 280 278 279 275 277 278 279 280 281 281 281 281 282 282 280 279 278 278 277 278 276 276 276 275 275 275 275 275 275 275 274 274 275 274 274 273 274 274 274 274 275 276 277 278 279 281 283 284 284 284 284 284 284 284 283 283 283 283 283 283 283 284 284 284 285 285
268 270 268 269 273 277 275 277 277 280 275 266 266 274 277 276 275 277 278 279 281 280 279 278 278 279 280 280 280 280 280 280 281 282 281 280 279 278 278 277 276 275 275 275 275 275 275 274 274 274 274 273 273 274 273 272 273 274 273 273 274 274 275 276 279 281 283 284 285 285 285 284 283 283 284 284 283 283 282 281 281 282 282 283 283 284 284
264 264 266 267 264 272 275 275 274 276 269 270 274 274 275 276 276 276 277 278 279 279 277 278 278 278 279 278 278 279 279 280 279 279 279 279 278 277 276 275 276 275 273 274 274 274 274 274 273 273 273 272 272 272 271 272 272 272 272 272 273 274 275 278 280 282 283 283 284 285 284 283 283 282 283 283 282 282 281 280 280 279 280 281 281 282 283
265 265 263 263 269 274 275 274 268 273 274 275 275 275 273 276 276 277 278 278 278 277 276 277 277 277 277 277 278 278 278 278 278 278 278 278 277 276 276 275 274 274 273 273 273 273 273 273 272 271 271 271 271 271 270 272 271 271 271 271 272 274 276 278 280 281 282 282 283 284 283 283 282 282 281 282 282 281 281 281 280 279 280 280 280 280 281
265 264 268 273 275 275 276 275 275 272 274 274 275 275 274 275 276 277 277 277 278 277 277 277 276 276 276 276 277 276 277 277 277 277 277 276 275 274 274 273 274 273 272 272 272 272 272 272 271 270 270 269 269 269 270 270 269 270 270 270 271 273 276 278 278 279 280 281 282 282 283 283 281 280 280 281 280 281 281 281 281 280 280 281 280 280 280
271 273 273 275 274 274 274 274 274 274 276 277 277 275 275 276 277 278 277 278 278 278 278 276 276 276 276 275 275 275 276 276 276 276 276 275 275 274 273 273 272 272 272 272 272 271 271 271 270 269 269 268 267 267 268 268 268 268 268 269 271 273 275 276 277 278 278 280 280 281 282 283 281 281 280 280 280 280 281 280 280 280 280 281 281 281 280
267 263 272 272 273 275 275 275 276 277 277 275 274 274 275 276 276 276 277 277 277 277 275 273 274 274 275 274 274 274 274 273 274 274 274 274 273 272 271 272 272 271 271 270 270 270 269 271 270 269 268 268 267 267 266 267 266 267 267 268 270 272 273 275 275 276 277 277 278 279 279 280 281 281 281 280 280 279 279 279 279 279 280 280 280 280 280
267 267 272 273 273 274 274 274 273 273 273 273 274 275 274 274 275 275 276 277 276 276 275 275 275 275 275 274 274 274 274 273 273 272 272 272 271 271 272 271 271 270 270 270 269 269 268 269 269 268 268 267 267 266 265 265 265 265 265 267 268 270 272 273 274 274 275 276 276 276 277 278 278 278 279 280 279 279 279 278 278 278 279 279 280 280 280
269 271 272 272 272 272 272 271 271 273 274 275 274 274 274 275 275 276 276 276 276 276 275 276 275 274 275 274 273 272 272 272 272 272 271 270 270 271 270 271 271 269 269 269 269 268 268 269 268 267 267 267 267 265 265 265 264 264 264 266 267 269 270 272 271 273 273 274 274 275 275 276 277 277 277 278 279 280 280 280 280 279 279 279 279 280 281
264 265 268 271 266 266 271 273 274 275 275 275 275 275 275 275 275 275 275 275 275 274 275 275 275 274 274 273 271 270 271 271 272 272 271 270 269 269 270 270 269 269 269 269 269 268 268 268 267 267 267 267 266 265 264 264 264 263 264 265 266 267 269 269 270 270 271 272 272 273 273 274 274 275 278 279 279 279 279 281 281 281 281 279 280 280 279
265 270 272 273 272 272 273 274 275 276 276 275 274 274 274 274 274 275 275 274 275 275 276 274 273 272 272 271 270 269 270 271 272 272 271 270 269 268 268 268 268 268 268 268 269 267 268 268 267 266 266 266 266 264 264 264 263 263 263 264 265 266 267 268 269 269 269 270 270 271 272 272 273 273 274 275 278 279 280 279 280 280 280 280 281 281 280
272 273 273 274 273 271 273 275 275 275 276 275 274 274 273 273 273 273 273 274 273 274 274 271 270 271 270 270 270 269 269 270 271 271 271 270 269 268 268 268 267 266 267 267 268 267 267 266 266 266 266 266 265 263 263 263 263 262 263 264 264 265 266 267 268 268 269 269 269 269 270 271 271 272 272 272 273 277 278 278 279 280 279 279 279 280 280
270 274 274 274 274 274 275 275 275 275 275 272 271 271 271 271 271 272 272 273 274 273 272 271 270 270 269 269 270 269 269 270 271 270 270 269 269 268 267 266 265 265 266 267 267 266 265 265 265 265 264 265 264 262 263 263 262 262 262 263 263 264 265 266 267 267 268 268 268 268 268 269 269 270 270 271 270 271 274 277 278 278 278 278 278 278 278
274 274 273 271 272 272 273 273 273 272 270 269 269 270 271 272 273 273 274 273 272 270 269 268 268 268 268 268 268 268 268 269 270 269 268 267 267 266 265 264 264 265 265 266 266 265 264 264 264 264 263 264 263 262 262 262 262 261 262 263 263 264 265 265 266 266 266 267 267 267 268 269 269 269 270 270 271 272 271 272 273 274 275 275 276 276 276
274 270 268 269 269 270 271 269 268 269 268 270 270 269 270 271 271 271 273 271 270 269 267 267 266 266 266 266 265 266 266 267 267 268 267 266 265 265 264 264 263 263 264 265 265 264 264 263 263 263 262 263 263 262 262 262 261 261 262 262 263 263 265 265 265 265 266 266 267 267 268 268 268 268 269 270 271 271 271 271 270 269 268 269 272 274 273
270 265 266 264 265 266 267 268 266 267 269 269 266 266 267 267 266 268 269 268 267 267 267 266 265 264 263 264 264 263 264 265 264 265 266 265 265 264 263 263 262 262 263 264 264 264 263 262 262 261 261 263 262 261 261 261 261 261 261 261 262 262 263 264 265 265 265 265 266 267 267 267 268 268 269 270 270 270 271 271 269 268 267 267 268 270 272
267 264 263 263 265 265 265 265 265 266 266 266 265 264 263 262 263 266 265 265 265 265 264 264 264 263 263 262 263 262 262 263 263 263 264 265 264 263 262 262 261 261 262 263 263 263 262 261 261 260 261 262 261 261 261 260 260 261 260 261 261 262 262 263 264 265 265 265 266 267 267 267 267 267 268 269 269 269 270 268 268 267 266 266 267 267 269
264 262 261 262 263 262 262 261 261 261 262 263 263 261 261 261 262 263 263 263 263 262 263 263 262 262 262 261 261 260 260 261 262 263 263 264 263 262 262 261 260 260 261 261 261 262 260 260 260 259 260 261 261 260 260 260 260 261 260 261 261 261 261 263 264 264 264 265 265 266 266 266 266 267 267 267 267 268 269 268 267 266 265 265 266 265 265
260 259 258 259 259 259 260 259 259 259 260 261 261 260 261 261 261 261 262 262 262 262 262 261 261 261 260 260 260 260 260 261 261 262 262 263 262 262 261 260 258 257 258 259 259 260 260 260 259 259 261 260 260 260 260 260 260 260 260 260 260 261 262 263 264 264 264 264 264 264 264 265 265 266 266 266 267 267 267 267 265 265 265 264 264 264 265
258 259 257 256 258 258 259 258 259 259 259 260 261 261 260 260 259 259 260 260 261 260 260 260 260 260 260 259 259 259 260 260 260 260 261 261 261 260 260 259 258 258 258 258 258 260 259 259 258 259 260 260 260 260 260 259 260 260 259 259 259 259 260 262 262 263 263 264 264 263 264 264 264 265 264 265 265 266 265 265 265 265 265 264 264 264 265
256 260 261 258 258 257 258 259 258 257 258 258 259 261 261 261 260 260 260 260 260 260 259 260 260 259 259 259 258 258 258 259 259 259 259 259 259 259 259 258 257 257 256 257 257 259 259 258 258 259 260 260 260 259 259 259 259 259 259 259 258 259 260 261 262 262 263 263 262 262 262 263 263 263 263 263 264 264 265 265 264 264 263 263 263 264 265
256 258 260 256 256 258 258 258 258 257 258 259 259 260 260 260 259 259 258 259 259 258 259 258 258 258 258 258 257 257 257 257 257 258 258 258 258 258 257 256 255 255 255 256 257 258 258 258 258 258 260 260 259 259 259 258 259 259 259 258 257 258 259 259 261 261 261 261 261 261 261 261 261 262 262 262 262 262 263 263 263 263 263 262 263 263 264
257 257 257 257 259 260 260 258 256 256 256 256 257 258 259 259 259 259 259 258 258 258 258 258 258 258 257 257 257 257 257 256 256 257 257 257 257 257 255 254 254 254 255 256 257 257 258 258 258 259 259 259 258 258 257 258 259 259 258 257 257 257 258 259 259 259 259 259 260 259 260 260 260 262 262 261 260 261 261 261 261 261 261 261 261 262 262
254 256 256 256 255 254 253 254 256 255 256 256 257 257 258 259 259 258 257 257 258 258 258 257 257 257 256 256 256 256 255 256 256 256 256 256 255 255 253 252 253 253 254 255 254 254 256 256 259 260 259 258 258 257 257 258 259 258 257 256 256 256 257 258 258 258 258 258 258 258 258 260 260 260 260 259 259 259 260 259 260 259 259 259 260 260 260
254 256 255 254 256 253 253 255 255 256 256 256 257 257 257 258 258 258 257 257 257 256 256 256 255 255 254 255 254 254 255 255 256 255 255 254 253 252 252 252 252 253 255 253 253 255 255 257 258 259 258 255 256 256 257 259 259 258 255 254 255 255 256 256 256 256 256 256 257 257 258 258 257 257 258 256 256 258 259 258 259 258 258 258 258 258 258
255 255 255 255 254 253 255 255 256 256 256 256 257 258 257 257 257 256 256 255 255 255 255 255 253 253 253 253 253 253 254 254 253 252 252 251 251 250 251 251 253 253 252 252 253 254 254 257 258 257 254 254 255 256 257 259 259 257 254 254 254 254 255 255 255 255 256 255 256 254 254 254 254 254 255 255 255 256 257 257 258 258 257 257 257 258 258
254 254 255 255 254 254 255 256 256 255 255 255 256 256 257 257 256 255 254 254 254 254 254 252 252 251 252 252 252 253 252 252 251 251 250 250 250 247 250 251 252 253 254 255 255 255 256 257 257 255 254 253 255 256 258 259 259 257 255 253 253 253 254 254 254 255 255 255 254 255 254 255 254 254 255 255 255 257 257 258 258 257 256 256 256 256 257
253 254 255 256 256 256 256 256 256 256 255 255 255 255 256 256 255 254 253 253 253 253 251 250 250 250 251 251 251 251 252 251 251 250 249 248 248 248 250 250 250 252 253 256 256 256 257 257 256 253 255 255 255 257 258 259 259 257 255 254 254 254 253 254 253 253 253 253 254 255 254 254 254 255 256 256 256 256 256 256 256 256 256 256 256 257 257
255 256 257 256 256 256 256 255 255 255 254 254 253 253 253 253 252 252 252 252 252 251 250 249 249 250 250 250 250 250 250 250 249 248 247 245 248 249 249 250 249 247 250 253 255 255 256 256 255 255 255 256 257 258 258 258 257 255 255 254 254 254 254 254 253 254 253 253 253 252 252 253 254 255 256 255 255 256 256 256 256 256 255 255 256 256 256
255 255 255 255 255 254 254 253 252 252 253 252 252 251 251 250 250 251 251 251 250 250 250 250 250 250 250 250 249 248 247 247 247 248 246 247 248 248 248 250 247 249 255 255 255 254 252 250 251 254 254 256 257 258 258 257 255 255 254 253 253 254 253 254 253 253 254 253 253 251 252 253 254 254 255 255 254 254 255 255 255 255 255 255 255 255 256
255 254 253 253 252 252 251 251 250 250 250 251 251 248 248 248 248 248 248 248 249 250 250 249 249 249 248 246 245 246 247 248 247 247 248 248 247 248 249 251 250 251 254 254 254 252 252 250 252 250 256 257 258 258 257 256 255 254 253 254 254 254 253 253 253 253 253 252 253 253 252 253 253 253 254 254 253 254 254 255 255 255 254 253 253 254 255
253 252 251 250 250 250 249 249 249 248 249 251 249 248 247 247 246 246 246 248 248 248 247 247 247 247 247 246 244 246 248 248 248 248 246 248 250 246 244 246 246 251 254 254 253 253 252 252 252 254 257 257 257 257 257 253 254 253 253 253 253 253 253 253 252 252 252 253 253 253 253 253 252 252 252 252 253 254 254 254 255 254 254 254 255 255 255
250 250 248 248 248 247 248 248 247 249 250 249 248 247 247 246 246 244 244 246 247 247 247 246 246 246 247 245 246 246 247 247 246 245 246 247 248 249 246 251 252 251 253 254 253 252 251 252 254 256 256 257 257 256 254 252 253 253 252 252 253 253 253 253 253 253 253 252 252 253 253 253 252 251 251 251 253 253 253 252 252 252 252 253 254 254 254
246 247 245 248 247 248 249 248 247 245 244 245 246 248 248 245 244 244 243 244 245 246 246 245 245 245 245 245 245 245 245 246 246 244 247 248 248 249 250 252 251 253 253 253 251 252 250 254 255 256 256 256 256 254 251 252 252 252 252 252 252 253 253 253 253 253 253 253 253 253 253 252 251 251 251 252 252 252 253 254 253 251 250 251 253 253 253
245 246 245 244 245 246 245 244 242 243 242 243 247 250 248 245 244 245 245 244 243 244 244 244 244 245 245 244 244 244 247 248 250 247 246 245 247 249 250 252 252 252 252 252 252 252 252 254 255 255 255 255 255 251 249 249 250 251 251 252 252 253 253 253 253 253 253 253 254 254 254 253 252 251 251 252 252 253 254 253 252 252 252 252 252 253 253
244 245 246 246 246 246 243 241 240 244 243 247 248 248 247 244 244 244 245 244 244 243 244 244 245 243 245 243 240 242 245 243 246 249 242 239 242 244 248 245 250 252 252 253 253 253 254 254 254 254 254 254 252 248 249 249 249 249 249 250 251 251 252 252 252 252 253 253 253 253 253 253 253 252 252 252 252 252 252 253 253 252 252 251 250 250 251
242 244 244 244 244 243 242 244 245 246 248 245 243 245 243 244 244 245 244 244 242 245 245 244 244 245 242 246 244 244 243 244 246 248 248 248 249 248 248 250 251 251 251 251 250 248 252 253 253 253 253 253 249 248 248 247 248 249 249 250 249 250 250 251 251 251 252 252 252 252 252 252 252 252 252 252 252 252 252 252 251 251 252 252 251 251 251
245 243 246 247 246 247 244 245 247 247 246 244 245 245 242 242 246 248 246 246 246 247 247 246 245 245 246 245 243 243 241 242 244 245 246 247 246 248 248 248 249 251 252 251 247 249 250 251 250 251 251 248 248 247 247 248 247 248 248 250 250 249 250 252 253 253 252 251 251 251 251 251 251 252 252 251 251 252 252 252 251 252 253 252 251 251 251
247 246 246 246 246 247 243 244 247 247 245 245 243 242 243 243 244 247 246 246 245 245 247 247 247 245 246 242 243 243 244 242 244 248 249 248 247 250 250 249 249 250 250 250 247 247 245 245 245 248 248 248 247 245 246 247 248 249 249 247 248 248 249 250 249 249 249 250 250 249 250 249 249 249 249 249 250 250 250 250 250 249 248 248 248 248 248
245 245 245 245 245 245 244 245 242 242 241 241 240 240 242 243 243 245 245 248 244 243 244 244 247 246 243 245 247 245 243 246 246 246 248 247 247 245 248 250 247 247 246 245 245 245 244 244 247 248 249 247 244 244 248 249 248 246 247 248 248 247 248 248 248 248 248 249 248 248 248 248 248 249 248 247 248 248 248 248 247 247 247 246 246 246 245
Wind_Speed
7 8 8 4 3 3 3 5 7 11 9 6 7 11 15 11 9 15 16 13 13 13 12 17 18 16 14 13 14 13 11 13 13 13 13 14 16 16 14 12 13 13 13 12 14 12 9 7 8 10 9 7 6 5 4 3 4 5 6 4 3 4 4 5 6 6 6 6 6 6 6 6 7 8 8 7 6 6 5 6 7 7 7 7 8 9 7
6 7 5 2 2 3 5 8 11 12 12 15 14 16 15 14 13 11 13 15 16 11 13 16 19 18 15 14 10 11 13 15 16 15 14 13 13 15 16 15 13 12 13 13 12 11 5 4 5 6 8 8 7 6 5 5 4 5 6 6 5 5 4 5 5 5 6 5 5 5 5 6 7 7 7 7 6 7 7 7 7 7 7 7 6 8 9
6 3 1 2 2 3 7 11 13 14 15 16 16 13 14 11 10 11 15 17 19 13 14 16 16 14 13 15 16 15 13 13 14 14 15 15 13 13 13 14 16 15 13 13 12 8 3 3 5 5 6 7 7 7 7 7 7 6 5 5 4 4 4 4 5 6 6 7 6 6 5 6 6 6 7 7 7 7 8 8 8 8 6 8 8 7 8
3 2 2 2 2 6 10 15 19 18 15 13 10 8 6 8 13 14 13 11 12 13 11 6 8 9 9 13 15 14 12 11 12 11 13 15 17 18 18 17 17 17 18 17 15 14 13 9 5 6 8 8 8 8 8 7 7 7 6 5 5 5 5 5 5 5 5 5 5 5 6 7 7 7 6 6 6 7 7 9 9 7 8 8 8 8 7
1 2 3 2 5 8 15 15 14 15 14 14 11 8 7 10 7 8 8 12 12 11 9 12 10 11 12 13 12 13 12 10 10 11 10 10 12 12 12 13 14 15 15 15 16 16 14 12 12 11 8 4 4 7 7 7 6 5 5 5 5 5 5 5 6 6 6 7 6 5 5 6 7 8 8 8 8 7 8 7 7 9 9 9 9 9 7
1 1 1 3 8 11 9 4 3 1 3 4 7 9 10 12 9 7 7 8 8 10 11 9 11 12 11 12 9 6 6 9 11 11 9 9 10 11 12 10 10 11 12 13 15 15 14 12 11 11 10 11 10 8 7 4 3 2 1 1 3 3 4 5 6 7 7 8 8 7 7 7 7 7 7 8 8 6 7 7 7 8 8 9 9 9 8
2 1 3 8 10 16 3 2 3 5 6 6 9 11 9 5 7 6 4 8 8 7 5 5 7 9 11 12 2 4 7 7 9 9 9 11 11 11 11 13 13 11 11 12 13 15 15 15 13 14 13 13 14 12 9 6 5 4 4 4 4 4 4 4 5 7 8 7 8 8 7 8 8 8 7 7 7 7 7 8 9 10 10 10 10 9 9
3 2 3 3 15 0 15 8 8 10 2 1 1 5 7 8 7 5 4 5 4 6 8 7 7 10 12 7 2 2 6 8 8 9 11 11 10 11 10 10 11 12 12 11 11 12 11 12 12 11 12 13 13 13 11 8 7 6 6 7 8 9 8 9 9 8 9 10 9 8 9 8 8 9 8 7 9 8 7 8 7 7 8 7 9 11 9
7 3 8 15 15 21 10 2 7 4 3 3 1 4 1 6 4 6 5 7 7 7 8 7 9 11 11 7 5 2 10 10 6 6 8 9 8 8 7 7 8 8 9 9 10 8 8 8 11 12 13 12 11 10 9 8 7 7 7 8 9 9 9 9 10 10 10 10 11 9 9 10 10 9 9 10 8 5 8 8 8 8 8 9 9 9 11
8 8 7 8 8 12 2 3 6 4 3 3 4 1 1 2 6 3 4 9 8 8 9 8 9 8 11 13 11 4 9 11 13 8 5 7 7 7 7 6 6 6 7 8 8 8 8 7 8 10 12 12 11 9 9 9 8 6 7 7 7 8 8 8 8 9 9 9 10 9 9 9 10 10 9 8 7 5 7 10 10 9 8 9 9 7 8
2 5 7 7 8 6 6 2 6 8 7 4 5 1 8 4 8 4 5 6 8 6 7 7 7 9 10 12 10 9 14 15 12 12 10 5 7 9 6 7 11 11 9 9 9 8 9 9 9 9 10 12 10 10 9 9 8 8 7 8 8 8 8 8 8 8 9 9 9 9 9 9 9 10 9 9 9 7 7 7 9 8 7 8 10 8 6
6 7 8 10 3 5 2 3 9 9 7 5 2 7 3 6 11 8 8 8 8 7 4 5 4 5 7 10 12 15 16 15 13 11 11 11 9 10 6 4 6 9 10 10 9 8 9 10 11 11 10 9 10 11 11 10 10 10 10 10 9 9 8 8 8 7 7 8 8 9 9 9 8 8 8 8 8 9 9 7 9 8 7 7 9 10 6
11 14 12 9 9 0 3 5 11 9 5 0 7 12 5 11 11 12 11 11 4 3 3 3 5 5 6 10 13 15 15 16 16 11 5 6 7 9 11 10 10 7 8 8 9 10 8 9 9 10 10 10 10 10 11 10 11 11 12 11 10 10 9 8 8 8 7 7 8 8 7 8 8 8 8 8 8 8 8 8 8 9 9 8 8 9 7
8 8 10 12 9 1 1 9 8 5 7 6 6 3 4 9 14 13 12 9 3 3 4 6 6 8 10 10 11 13 14 13 13 12 11 8 7 6 6 8 10 9 9 9 9 9 9 10 10 9 9 9 9 10 10 10 12 11 12 11 11 10 10 8 9 9 8 7 7 7 6 7 7 8 8 8 8 8 7 8 9 9 9 9 9 10 10
2 2 8 8 10 2 8 15 13 6 7 3 1 6 9 9 12 13 9 4 5 4 7 6 7 10 11 11 12 13 13 11 12 13 13 12 10 10 8 8 8 9 11 11 10 10 10 10 10 10 10 10 9 9 9 12 12 12 12 11 11 10 9 8 8 8 7 9 8 6 6 7 7 7 7 7 8 8 8 8 9 9 9 9 9 10 10
6 8 8 6 2 4 6 10 5 6 3 1 4 7 11 11 11 7 6 5 5 6 6 8 9 9 10 11 10 10 10 11 11 11 11 10 7 8 5 5 8 9 10 10 10 9 9 8 9 9 9 10 10 10 10 10 11 12 12 12 12 10 9 8 8 8 8 8 7 6 5 6 6 7 8 8 6 6 6 8 8 8 8 9 9 10 11
2 6 4 7 15 15 12 6 6 4 4 3 5 7 10 9 6 4 7 12 11 6 8 9 9 10 9 10 8 9 10 11 11 11 11 10 9 8 8 7 7 8 9 11 11 11 9 9 7 8 8 9 11 11 12 11 11 11 12 12 11 10 10 9 8 8 8 7 7 7 6 4 5 6 7 7 7 7 6 7 8 8 8 10 10 9 9
4 12 13 12 12 7 7 6 5 7 11 11 11 8 8 6 7 7 11 11 11 9 8 9 9 10 10 10 9 8 8 10 11 9 9 9 6 7 7 7 7 8 9 9 10 11 11 9 6 8 9 9 10 11 12 12 12 11 11 11 11 11 10 9 9 8 9 7 8 7 8 5 4 4 4 6 6 6 6 7 7 8 8 8 9 10 10
6 6 9 4 11 13 13 14 14 13 11 7 4 7 11 12 12 11 9 9 10 10 8 7 11 11 9 9 9 7 7 8 8 8 10 9 7 7 7 6 7 9 8 9 9 10 11 9 7 8 7 8 9 11 12 12 13 12 11 10 10 10 11 9 9 8 10 7 8 7 7 7 6 5 4 4 4 5 5 6 7 8 8 8 8 8 9
10 14 12 12 12 15 12 10 10 8 7 10 12 11 10 9 9 8 10 10 10 9 10 9 9 11 10 10 9 8 7 7 7 7 8 7 6 5 5 6 6 7 8 9 10 10 9 8 8 8 8 9 9 11 11 11 12 12 11 9 9 10 11 9 8 9 9 12 11 7 7 7 6 6 6 5 4 4 5 5 6 7 7 8 8 9 8
10 13 14 15 13 12 9 6 6 9 12 12 11 10 10 10 12 13 12 9 11 9 10 8 9 11 12 10 6 6 7 7 7 7 5 4 5 6 6 7 4 6 8 9 9 10 9 8 9 8 9 9 7 9 10 11 11 11 11 11 9 9 9 8 8 9 8 8 8 8 8 8 6 5 6 7 6 4 2 2 5 5 5 5 8 9 8
11 8 10 9 13 13 12 14 15 14 13 14 16 15 14 12 12 12 12 12 7 7 9 10 10 12 12 9 3 6 5 6 7 6 4 4 5 5 5 5 6 7 7 8 8 8 8 8 8 8 8 8 7 8 9 9 10 10 11 10 9 8 8 8 8 9 8 8 8 8 8 8 10 10 7 9 8 6 5 6 9 11 10 7 7 7 7
12 10 12 12 14 16 13 15 15 16 16 16 17 14 11 10 9 9 12 14 14 13 12 6 9 9 7 7 4 5 5 5 5 4 5 6 5 4 5 5 7 7 8 8 6 7 8 7 7 7 7 8 7 9 9 10 10 10 10 8 8 8 8 7 9 9 8 8 7 7 7 8 8 9 11 9 9 12 10 9 9 10 12 14 16 15 11
16 14 13 12 11 14 16 15 16 15 13 10 11 12 11 12 13 13 13 14 15 15 14 5 1 3 5 6 6 7 5 5 6 5 5 5 4 4 4 6 7 8 8 8 6 7 7 7 8 8 8 7 7 9 8 9 9 9 9 8 7 8 8 8 9 9 8 8 9 8 8 7 7 8 8 10 10 7 12 14 11 10 12 14 16 15 16
12 11 10 11 12 14 14 13 11 11 6 7 10 12 14 14 14 12 12 13 12 10 8 5 3 5 6 7 6 6 6 6 6 5 5 5 5 5 6 7 8 8 8 7 6 6 7 8 8 7 7 7 7 9 9 9 10 9 8 8 8 8 8 8 8 9 8 8 8 8 8 8 8 7 7 7 9 12 10 10 11 10 12 15 16 16 16
10 10 7 5 7 10 9 9 9 6 11 13 12 11 11 10 12 13 12 10 5 4 4 5 5 6 6 6 6 7 6 6 7 6 4 4 5 6 6 7 8 8 8 7 6 7 8 9 8 8 8 8 8 10 10 9 10 9 8 8 9 8 8 9 9 8 8 8 8 8 8 7 7 7 6 6 7 7 9 10 8 8 10 15 16 17 16
7 3 5 10 10 11 10 7 7 13 15 11 10 11 13 13 14 13 11 2 4 5 5 6 5 6 5 4 6 6 6 7 6 5 3 4 5 5 6 7 8 9 9 7 6 7 9 9 8 8 8 8 7 9 9 11 11 8 8 8 7 9 13 11 7 8 7 8 8 8 8 7 7 7 7 7 6 6 7 7 7 8 8 9 12 15 13
2 4 4 1 7 9 12 14 11 11 10 9 11 12 12 12 12 12 6 7 7 6 5 6 6 6 6 6 7 6 6 6 6 7 6 5 4 5 5 7 8 9 8 7 5 6 7 8 8 8 8 7 8 9 9 9 9 7 7 8 7 7 8 9 8 7 7 7 7 7 7 7 7 7 8 7 6 5 5 5 6 6 7 8 8 9 14
2 3 2 2 6 7 7 9 8 9 9 9 9 8 9 10 10 7 8 8 7 7 6 7 6 6 6 6 6 6 6 6 7 7 7 6 4 5 6 8 8 8 8 6 5 4 5 7 7 8 8 6 7 8 8 8 8 7 7 7 6 7 7 7 8 7 7 7 7 7 8 8 7 7 7 6 6 5 5 5 5 5 5 7 9 10 10
1 4 3 4 3 3 5 5 5 6 7 8 7 7 6 7 7 7 6 8 8 7 7 7 7 6 6 6 6 6 7 7 8 8 8 6 4 5 6 8 8 6 5 4 5 5 5 6 6 7 6 7 8 8 8 8 7 6 6 7 6 6 7 8 8 8 7 7 7 10 7 6 6 6 6 6 6 6 5 4 5 5 6 7 8 7 8
10 5 5 3 2 3 4 5 4 5 6 7 6 6 7 6 6 7 7 7 7 7 8 8 7 7 6 6 6 6 6 7 7 7 7 6 5 5 6 7 6 6 6 6 7 6 5 6 5 6 6 7 7 7 8 8 7 6 6 6 6 10 13 14 10 7 6 7 7 7 7 7 7 7 8 7 6 5 6 4 4 5 5 5 5 6 7
9 12 5 1 2 4 5 3 4 6 6 6 7 7 7 7 8 9 9 8 7 9 9 9 8 7 8 7 8 7 7 7 8 8 7 6 5 5 5 6 7 8 8 8 7 6 5 5 6 6 7 7 7 7 7 7 7 6 6 7 6 6 8 13 8 8 7 7 7 7 7 7 7 6 7 7 6 6 5 5 5 5 5 6 6 6 7
4 11 7 3 6 2 4 6 5 8 7 8 8 6 6 5 5 6 6 7 8 7 7 7 7 8 8 8 8 8 8 8 8 8 7 7 7 7 6 6 6 8 8 7 7 6 4 5 6 7 7 7 7 7 7 8 7 6 6 6 6 6 7 7 9 7 6 6 6 6 6 7 6 6 6 7 7 7 6 5 5 5 5 6 5 6 6
5 5 5 4 2 6 9 11 7 8 8 6 6 6 6 6 5 6 7 7 7 7 7 8 9 9 8 8 8 8 8 7 7 7 8 8 8 9 8 7 7 8 9 8 7 3 3 6 7 6 7 7 7 7 7 7 6 6 6 6 6 5 6 6 7 6 5 6 6 7 6 6 6 6 7 7 6 6 7 6 6 6 6 5 5 6 9
5 6 5 6 5 6 5 6 7 7 7 9 9 7 6 6 6 6 7 7 6 7 8 7 8 9 9 9 8 8 7 7 7 8 9 9 9 9 9 10 10 8 8 8 4 2 4 7 7 7 6 6 7 6 7 7 7 6 6 6 6 5 5 6 5 5 6 5 6 6 6 5 5 6 6 6 6 6 6 6 6 6 6 6 6 7 7
3 4 4 5 5 7 6 7 6 7 7 7 8 9 9 8 6 6 7 7 7 7 7 7 8 8 8 8 8 7 8 8 7 8 8 9 10 8 9 9 9 10 8 7 2 2 6 7 10 12 7 6 6 6 7 7 6 5 6 6 5 5 6 5 5 5 5 5 5 5 5 6 6 6 6 5 5 5 5 5 5 5 5 6 6 6 6
3 5 5 5 5 6 7 6 6 6 7 7 8 8 9 8 7 6 6 7 6 7 7 7 7 8 8 8 7 8 8 7 6 6 7 7 7 8 8 8 8 6 6 6 2 4 6 6 10 13 8 5 6 6 7 10 6 5 5 6 5 5 5 5 5 5 5 5 5 5 6 6 5 5 6 4 5 5 4 4 5 5 5 5 5 5 6
5 4 5 5 5 6 7 7 5 5 7 9 9 8 7 8 6 6 6 6 7 6 5 5 5 7 8 9 8 8 7 6 6 7 8 8 7 9 9 6 7 5 5 5 5 6 5 8 11 8 5 5 5 6 8 11 10 6 5 5 5 5 6 5 5 6 6 5 6 5 5 5 5 5 5 5 5 4 6 5 5 4 5 5 5 5 5
5 4 3 3 4 5 7 6 4 4 4 8 8 8 7 5 4 5 7 7 7 5 4 6 6 7 7 8 9 9 7 6 6 8 9 10 7 5 9 9 9 7 5 6 7 6 6 7 8 6 5 5 6 6 7 9 10 5 5 5 5 4 5 5 5 6 6 6 5 5 5 5 5 5 5 5 5 5 6 6 6 5 5 5 4 5 4
5 4 5 4 5 6 5 6 5 5 4 4 5 8 7 5 6 5 7 8 5 2 3 5 6 6 7 7 8 9 9 8 8 8 9 8 7 8 8 6 4 4 4 7 5 5 8 12 8 5 5 6 5 5 5 8 8 5 5 5 5 5 5 5 4 5 5 5 5 5 5 5 5 5 5 5 5 5 5 5 5 5 5 5 4 5 5
6 6 5 4 6 5 5 6 6 5 5 5 5 5 4 4 5 6 8 8 5 4 4 4 5 7 7 8 8 10 10 9 7 7 6 5 7 6 6 9 3 2 4 5 6 6 8 7 6 6 6 6 5 6 6 8 6 4 5 5 5 5 5 5 5 5 5 5 5 5 5 5 5 5 5 4 4 4 4 4 4 4 4 5 5 5 5
7 5 5 6 6 5 5 5 5 7 7 4 5 4 4 3 5 8 8 6 6 6 6 6 5 7 8 8 8 9 10 9 7 7 5 6 6 6 7 7 1 3 9 10 8 7 6 6 6 6 7 7 6 10 11 7 5 5 5 5 5 5 4 4 4 5 5 4 4 4 5 5 4 4 4 4 4 4 4 5 4 4 4 4 4 5 5
5 6 7 6 6 6 5 6 6 7 9 9 5 4 4 4 6 6 6 6 5 6 7 6 6 6 6 6 6 8 10 7 7 7 8 7 6 8 8 7 5 7 13 9 7 6 6 4 6 5 9 10 8 11 10 5 5 5 4 5 5 5 4 4 4 4 4 4 4 4 4 5 5 4 4 5 5 4 4 4 5 5 5 5 5 4 4
7 5 5 6 7 6 5 6 7 6 7 9 4 4 6 6 5 6 6 6 6 5 6 7 7 7 7 5 5 7 8 7 7 6 6 10 9 3 4 5 4 7 12 9 7 7 6 6 6 9 13 13 13 12 7 4 5 5 4 4 4 4 4 4 4 3 3 4 3 4 4 5 4 4 4 5 5 5 4 4 4 4 4 4 4 4 4
7 6 6 7 8 5 7 6 6 8 7 7 9 10 8 7 6 5 4 5 7 7 5 6 6 7 7 6 6 6 8 7 6 4 6 7 7 6 1 2 6 6 9 11 8 7 6 6 9 13 12 13 13 12 6 5 5 5 4 4 4 4 4 4 4 3 3 3 3 3 4 4 4 4 4 5 5 4 5 5 5 4 4 4 4 4 4
9 7 7 6 8 8 7 6 6 4 6 7 10 10 6 5 5 5 5 6 7 7 6 6 7 8 7 7 7 8 8 8 7 6 8 8 8 7 6 7 8 7 13 13 6 7 6 11 14 13 13 13 13 8 4 5 6 5 4 4 4 5 4 4 4 4 4 4 4 3 3 3 3 3 4 4 4 4 4 5 5 4 5 5 4 4 4
7 9 10 8 9 8 8 6 4 5 6 5 7 9 5 4 4 5 6 7 9 9 7 7 7 8 7 7 6 6 8 9 9 4 6 6 6 7 8 10 10 12 11 8 7 6 7 8 11 13 14 14 11 5 5 5 5 4 5 4 4 4 4 4 4 4 4 3 4 4 4 4 3 3 4 3 4 3 3 4 4 4 5 5 4 5 4
9 10 10 10 11 11 9 9 8 7 8 9 7 7 7 6 5 6 7 6 7 7 7 6 7 7 7 7 5 6 6 3 7 9 1 2 3 4 6 5 9 12 14 10 10 8 12 14 15 14 13 12 7 4 5 5 4 5 5 5 4 4 4 4 4 4 4 4 4 4 4 4 3 3 3 3 3 3 3 4 4 4 4 4 4 5 4
8 9 10 9 7 8 7 6 5 7 7 5 5 6 5 6 8 6 6 6 8 7 6 7 9 9 6 7 5 5 5 5 7 8 5 5 8 8 8 7 10 11 9 7 7 5 9 13 13 13 13 9 5 5 5 5 5 5 5 5 4 5 5 5 4 4 4 4 4 4 4 4 4 4 4 4 4 4 4 4 3 3 4 3 3 4 3
6 5 6 6 6 7 5 7 7 7 6 6 6 6 4 3 7 7 5 6 6 8 7 7 6 6 6 6 4 5 3 4 5 7 8 9 9 8 7 7 8 10 10 8 5 7 7 11 10 10 8 5 5 5 4 5 4 4 4 5 5 5 5 6 6 6 5 5 4 4 4 4 4 5 5 4 4 4 4 4 4 5 7 5 4 4 4
6 6 6 7 6 7 6 7 8 7 6 7 5 4 2 3 6 8 6 7 6 7 7 8 7 4 6 4 4 5 5 5 5 6 7 7 6 7 8 7 7 7 8 8 6 7 6 6 6 7 6 5 6 4 4 5 4 5 5 4 4 5 5 6 5 4 4 5 4 4 4 4 4 4 4 4 4 4 5 5 5 4 4 4 5 4 4
7 6 7 6 7 7 7 7 6 5 5 5 4 4 3 4 5 7 7 5 5 6 5 7 11 6 1 5 7 6 4 6 7 6 7 8 7 6 8 7 7 7 7 6 7 6 6 6 6 7 7 6 6 5 5 6 5 4 5 6 5 5 5 6 5 4 4 4 5 4 5 4 4 5 4 4 4 5 5 5 5 5 5 5 5 5 4
Wind_Direction
252 260 268 313 332 257 258 262 273 279 272 247 230 237 235 231 221 246 257 252 252 259 266 280 284 283 278 271 281 294 303 303 300 302 307 305 305 303 299 294 293 295 294 294 296 295 289 299 299 296 293 282 295 324 359 316 329 315 306 321 338 352 343 329 308 303 306 312 312 313 312 308 304 300 297 292 291 290 286 279 273 269 269 270 276 281 275
273 276 289 337 312 280 270 256 253 252 251 247 240 246 249 235 242 249 265 277 269 266 270 269 273 282 296 303 308 305 300 295 298 299 296 293 291 291 295 296 292 290 289 291 290 293 341 341 329 327 329 340 353 349 345 350 346 340 347 346 360 2 0 335 321 319 316 314 314 314 314 311 304 302 300 302 302 299 290 280 278 276 277 275 270 271 276
293 324 31 4 222 247 275 258 249 250 245 245 242 248 263 278 279 269 267 268 273 270 265 271 284 296 300 297 295 290 287 290 289 291 297 299 294 292 292 294 296 295 292 290 299 324 35 28 338 340 337 339 341 344 350 350 347 339 350 347 356 360 343 330 336 337 339 337 333 337 325 316 317 319 319 319 315 308 303 299 295 294 292 286 275 264 265
324 32 97 273 337 271 264 269 259 251 259 270 268 252 238 240 251 259 267 272 273 274 279 281 282 288 291 291 295 298 300 313 327 340 346 349 351 353 351 345 341 342 346 350 352 351 349 359 10 1 347 336 341 337 334 339 333 332 341 344 348 356 1 6 360 348 335 325 330 331 334 333 328 323 323 325 321 313 310 307 302 304 296 282 283 278 273
331 218 115 23 306 323 284 267 260 255 244 237 260 258 246 238 239 265 261 254 258 282 316 321 334 347 334 331 329 338 6 12 20 16 11 359 349 348 354 355 350 348 346 342 342 342 343 351 352 348 341 317 306 308 308 306 319 329 328 337 7 14 2 355 344 334 329 329 326 332 336 329 324 328 330 328 325 323 311 300 302 298 290 294 287 284 279
92 29 30 334 338 286 268 106 118 157 213 221 223 247 246 246 219 237 247 283 347 9 9 3 343 335 327 310 332 46 36 7 5 2 2 356 346 343 343 349 345 340 341 339 336 336 334 342 346 337 337 330 320 304 288 280 291 300 337 58 56 8 349 347 340 335 333 334 334 334 334 333 331 332 332 325 318 314 306 304 295 291 290 286 286 285 280
231 124 29 311 251 250 144 30 27 228 216 213 222 247 263 325 6 2 14 15 6 349 348 331 320 312 312 314 358 19 47 30 10 351 350 350 346 340 338 338 341 341 339 334 334 338 341 342 342 340 340 339 327 321 318 334 337 350 12 20 16 2 352 345 343 339 337 335 333 333 334 332 332 332 330 322 321 320 312 303 302 299 296 298 293 290 287
281 237 177 244 245 318 350 350 20 346 312 219 276 303 46 40 40 9 31 356 339 335 333 327 325 320 314 310 181 96 66 48 7 357 343 340 344 337 336 331 327 333 334 332 328 326 332 338 336 339 335 333 329 317 321 331 338 358 8 9 1 356 354 352 351 346 341 336 334 335 335 336 336 332 328 322 318 317 307 301 295 292 291 283 286 290 288
249 172 216 238 297 314 335 16 4 4 1 318 98 252 101 336 11 16 348 331 331 337 327 325 324 320 320 321 225 52 26 13 14 349 324 322 324 319 316 320 313 316 314 315 319 319 329 338 337 336 334 331 324 315 318 320 343 358 6 5 1 356 353 347 345 341 336 333 334 333 335 335 333 329 324 318 315 310 304 301 298 298 292 289 286 289 292
192 246 265 271 283 273 80 211 291 296 247 236 246 193 190 87 360 340 348 328 313 322 318 326 323 316 336 323 311 354 8 353 338 332 312 305 304 309 307 297 276 295 307 307 318 327 324 335 339 337 333 329 322 321 323 330 338 352 2 2 354 348 342 338 331 329 328 327 327 328 332 330 323 318 315 306 303 300 297 301 298 294 295 294 287 279 281
228 225 239 250 271 269 121 290 340 307 301 308 301 171 265 118 337 323 325 319 299 299 316 325 332 345 322 304 303 335 339 330 329 320 313 310 307 312 316 323 324 325 325 319 319 328 330 335 341 341 332 328 328 330 332 335 338 342 354 348 345 337 330 325 321 317 320 321 323 322 323 319 315 312 310 309 307 306 293 286 285 292 292 289 291 287 271
225 250 252 257 208 291 135 335 344 319 301 300 6 305 247 18 347 323 324 305 300 309 349 318 334 336 310 310 312 322 317 313 311 310 309 316 321 316 304 308 315 316 317 323 327 337 339 336 335 338 338 340 336 335 335 335 339 345 344 339 331 328 322 317 310 309 310 317 316 315 314 312 312 307 304 306 306 306 305 299 297 297 292 287 288 291 289
262 263 272 275 268 119 129 23 340 331 303 156 294 274 346 334 321 320 316 306 281 311 300 306 311 285 282 287 295 301 304 308 308 310 302 290 313 315 321 324 330 322 318 319 321 326 327 332 338 338 341 343 338 335 332 334 338 336 331 327 326 321 318 315 311 308 310 311 308 305 305 309 310 310 308 308 310 313 309 309 306 305 306 301 295 293 292
249 250 258 257 275 142 349 9 358 320 12 332 282 347 311 318 314 309 308 288 268 231 272 279 270 280 289 288 290 296 300 300 301 311 320 313 298 295 296 310 323 323 322 318 319 326 332 339 343 343 340 339 332 333 330 331 332 330 327 325 323 321 318 313 320 322 317 317 315 315 320 324 322 315 313 315 318 317 318 317 314 308 308 311 310 308 308
295 233 260 276 260 167 62 0 350 45 16 283 124 299 306 300 299 295 290 250 264 248 266 266 274 287 292 294 297 299 303 311 315 317 319 316 313 315 320 321 325 328 322 321 325 329 331 337 348 345 343 335 331 331 328 328 331 328 323 322 320 314 314 318 321 323 333 334 328 326 331 328 321 316 314 323 322 325 327 326 323 320 318 320 317 312 309
250 250 231 230 253 330 1 18 299 312 244 228 328 301 297 304 298 290 282 272 258 260 260 281 288 283 288 292 293 299 304 307 307 308 309 309 307 307 297 295 313 325 316 313 319 326 329 334 348 346 345 332 326 325 320 327 329 324 325 325 320 316 313 325 337 337 337 332 326 324 326 332 334 334 335 325 317 323 325 330 328 327 332 329 325 321 321
151 251 261 307 315 321 336 346 315 296 264 283 260 280 287 294 281 267 290 293 287 259 273 281 282 288 285 287 293 297 294 298 301 303 307 309 309 310 312 314 321 322 313 313 316 320 326 333 346 347 345 336 327 322 322 331 326 327 327 323 319 316 322 331 334 333 334 329 334 332 323 331 342 334 335 332 337 332 328 339 338 336 329 331 328 323 324
268 274 262 282 290 315 320 313 294 301 306 304 306 304 309 284 278 285 290 293 284 280 275 280 282 277 286 290 288 281 284 290 296 299 299 297 298 307 312 316 325 324 316 312 315 317 324 330 346 343 344 340 333 323 326 325 326 328 328 323 318 317 324 328 328 330 335 335 336 332 332 328 323 314 324 335 334 329 338 343 343 338 335 340 341 336 328
340 276 79 332 304 308 309 310 309 302 300 298 301 302 299 299 296 294 287 276 277 276 278 266 270 282 286 282 279 280 281 282 287 297 299 299 303 311 312 313 330 323 320 318 319 320 320 326 340 338 337 333 330 331 327 327 327 327 325 320 316 317 324 326 328 331 338 338 334 329 333 332 325 319 313 318 333 334 341 345 344 342 342 339 339 342 337
249 273 298 304 299 293 298 295 297 297 302 302 297 290 283 284 283 275 273 274 274 273 274 267 276 282 284 281 282 286 286 290 298 298 294 298 310 302 303 321 321 316 312 311 319 323 322 326 339 334 330 326 331 338 327 328 328 325 320 323 322 319 322 326 328 332 333 332 333 328 329 331 331 328 324 318 316 331 340 346 343 345 347 346 347 345 340
283 291 292 286 287 285 278 285 291 290 293 293 291 288 290 289 290 289 286 271 268 269 264 271 273 279 279 277 278 283 290 296 297 295 300 310 302 303 312 306 329 317 313 313 315 323 321 327 338 332 326 325 336 339 328 326 326 325 322 324 323 324 325 330 330 333 330 329 331 331 328 328 323 316 315 323 318 311 310 336 344 341 341 349 351 346 342
278 279 292 312 310 308 308 304 302 300 298 299 297 300 299 298 298 301 302 300 284 257 264 270 269 270 279 289 311 285 286 291 297 306 312 305 303 308 314 327 323 313 312 308 314 321 321 326 330 329 324 323 329 338 329 326 325 324 324 324 326 330 333 333 333 332 332 334 333 333 331 331 330 323 326 331 327 330 320 346 357 7 14 6 1 356 354
278 284 285 293 289 288 292 300 301 303 308 309 309 313 319 320 314 310 308 302 299 293 284 262 251 261 278 300 325 298 296 292 299 312 308 311 317 323 324 323 316 319 314 311 311 322 323 329 324 321 321 319 326 336 331 333 329 324 326 326 329 330 333 336 333 330 328 329 329 326 329 332 332 330 324 334 339 336 344 342 346 6 13 14 12 12 10
270 279 281 285 288 291 299 300 302 305 307 317 320 317 315 309 306 304 299 291 289 289 289 293 183 333 322 317 325 306 302 299 305 309 319 324 326 330 327 316 320 320 319 317 329 334 334 330 325 323 324 324 337 335 328 330 331 322 318 330 329 328 328 328 329 329 324 325 327 329 330 331 336 332 332 325 327 341 343 341 343 355 10 13 11 9 8
265 275 283 289 292 293 294 298 301 298 325 16 331 316 313 314 308 304 294 289 284 283 295 318 18 13 340 327 321 316 318 317 315 325 327 329 328 334 325 330 325 325 319 320 336 338 332 328 324 327 330 326 344 337 328 332 333 321 321 334 329 325 325 327 329 328 326 328 330 331 329 332 332 335 330 332 329 325 336 340 336 347 6 12 9 4 3
275 289 305 306 296 287 290 306 299 325 339 334 320 307 311 306 307 310 306 308 323 26 14 12 356 356 350 332 342 335 329 319 334 340 335 336 333 330 331 330 327 319 314 315 331 340 336 331 327 328 329 324 341 336 324 330 331 321 328 334 328 326 326 328 329 328 331 329 331 328 327 325 327 326 323 319 315 317 323 330 342 350 360 3 2 2 1
294 20 6 323 305 303 308 320 312 325 313 312 323 327 321 322 319 311 301 354 43 37 36 18 9 350 349 352 344 338 333 333 341 332 344 329 328 329 327 324 321 316 311 309 321 335 336 331 328 329 325 325 340 331 323 331 327 322 339 337 334 327 327 330 329 327 328 327 325 326 326 326 322 324 317 317 321 327 330 334 339 342 340 343 350 355 358
41 55 53 182 283 290 302 318 322 304 308 342 343 331 329 325 319 308 339 11 5 9 20 15 4 359 349 350 349 335 342 342 340 330 325 319 329 333 325 325 321 317 311 305 315 323 332 328 325 324 320 328 341 329 324 326 319 321 340 335 330 330 327 326 328 327 325 322 322 321 323 320 322 320 316 318 324 326 337 344 345 338 336 340 338 337 351
66 76 27 241 258 283 302 301 306 325 331 336 334 325 331 333 326 348 6 359 351 345 357 354 354 359 349 337 349 338 334 329 327 325 318 323 340 334 325 323 320 313 304 307 321 320 329 323 317 316 307 332 335 323 322 321 313 330 341 334 331 325 322 321 325 324 324 322 320 323 327 323 320 315 317 322 324 325 340 355 349 348 345 338 343 347 356
15 2 318 294 277 292 309 316 320 321 321 325 326 325 330 328 334 341 346 345 345 344 342 344 337 341 343 334 339 339 326 321 315 311 311 311 328 330 326 324 314 289 283 295 306 316 324 314 308 302 311 336 327 321 321 316 314 329 333 328 328 323 315 319 324 325 326 325 326 330 324 318 320 319 321 322 330 331 333 4 359 354 354 356 0 356 351
311 315 290 276 289 319 298 292 300 303 311 318 318 317 326 341 336 332 334 337 337 334 335 333 325 322 335 332 323 315 310 306 307 307 304 308 318 324 327 330 326 319 317 307 307 303 310 312 307 306 322 326 319 320 321 320 320 329 335 332 329 326 326 330 334 330 323 327 332 334 330 331 328 333 332 335 337 342 341 346 352 352 353 350 355 357 352
314 313 316 155 23 338 313 280 293 311 318 319 322 330 339 341 336 329 324 331 332 329 321 323 326 329 326 326 321 316 315 314 314 314 305 306 315 321 323 322 307 297 293 296 295 298 304 307 311 313 326 319 323 321 322 325 327 337 336 334 327 322 325 332 331 334 333 329 333 330 332 333 331 337 334 337 340 339 342 345 345 351 345 353 355 356 350
337 326 328 326 325 283 290 305 323 316 326 322 316 311 315 303 302 304 306 311 314 320 318 313 319 319 322 319 321 322 322 320 312 303 309 314 317 317 320 318 309 303 296 288 290 292 300 307 306 316 315 323 325 321 327 329 327 332 332 332 326 321 322 325 333 330 328 334 332 332 331 335 332 333 336 340 341 339 337 345 344 345 346 347 349 350 352
206 216 245 273 234 285 303 302 307 306 303 294 293 303 305 307 300 302 304 308 306 310 317 316 314 315 318 319 318 319 321 320 318 320 318 317 315 319 322 320 310 302 293 290 282 287 309 321 317 312 314 329 325 324 326 326 322 328 329 332 324 318 322 322 330 329 333 336 331 331 328 336 341 340 344 344 342 339 340 344 348 349 344 344 342 346 350
226 245 253 263 273 267 269 269 283 285 293 301 306 303 298 297 300 299 307 309 305 308 308 306 309 316 317 316 316 316 317 305 299 304 308 314 316 318 322 319 317 313 306 304 293 270 325 321 312 307 316 327 324 325 325 319 320 328 329 328 323 316 317 319 326 329 332 328 328 327 334 339 341 344 352 351 344 344 344 347 352 352 348 346 343 347 351
242 258 268 270 264 261 258 259 257 261 270 275 281 291 297 297 301 301 305 306 304 305 307 311 313 313 310 310 312 315 309 306 297 300 305 312 314 316 316 316 316 314 313 313 307 316 324 319 318 325 328 322 322 324 322 319 325 331 333 329 318 318 316 321 322 323 322 330 329 334 329 338 345 343 349 341 336 340 351 352 352 355 350 345 343 346 345
245 235 250 258 262 261 263 261 257 262 266 269 279 286 287 294 295 298 306 301 300 302 306 311 314 311 305 304 300 295 288 289 297 302 303 309 310 311 311 307 306 303 314 309 301 349 326 317 323 329 327 317 314 318 319 330 329 336 340 326 318 322 321 321 326 328 327 331 328 335 340 341 339 335 339 341 341 336 346 349 351 353 344 345 344 344 346
275 256 248 253 262 268 266 261 261 258 274 279 273 269 277 287 293 301 302 301 299 299 303 304 297 296 296 296 294 288 292 298 299 302 305 309 315 315 309 304 303 313 305 275 306 322 309 317 327 326 314 309 312 316 319 326 334 337 336 324 323 319 320 322 323 327 332 331 334 339 346 338 338 333 334 339 338 341 340 343 346 347 343 342 340 344 347
313 312 304 285 288 275 277 281 280 269 264 273 285 286 280 278 284 297 295 297 294 295 302 305 306 299 292 296 299 301 297 299 307 311 311 310 311 305 288 286 276 266 266 290 304 305 307 317 327 322 313 301 307 308 312 322 331 338 329 319 321 316 319 319 321 324 327 333 333 337 346 338 336 334 336 338 336 342 341 348 350 344 343 337 341 340 341
282 276 270 288 286 283 285 283 283 276 273 266 278 283 292 298 288 292 291 295 289 294 306 302 302 298 302 300 300 298 301 308 307 304 302 303 305 299 293 280 261 272 285 303 312 312 316 325 325 311 308 307 303 304 308 325 332 334 327 321 318 320 317 318 319 325 327 333 337 341 338 333 330 330 330 338 338 341 340 341 341 342 339 336 337 338 338
271 279 282 279 281 285 282 290 290 286 283 281 273 274 291 291 300 296 285 288 294 308 288 280 292 291 287 289 292 293 299 303 303 297 296 311 304 307 310 301 290 305 315 319 317 315 321 320 318 317 311 311 299 319 323 326 329 327 320 318 314 317 321 321 322 328 329 332 333 335 328 326 328 329 329 343 334 332 325 336 338 336 338 337 337 338 338
280 287 287 286 283 286 288 286 294 298 290 273 278 284 288 296 285 271 280 288 291 292 294 289 266 273 284 293 296 299 297 297 299 298 295 279 281 287 295 283 280 326 329 325 318 314 311 311 310 309 305 302 306 322 328 330 324 321 319 314 305 305 308 314 315 316 322 322 320 321 323 327 327 326 331 331 330 331 331 332 334 335 334 336 334 331 332
296 291 285 285 286 289 289 292 290 285 291 293 282 276 287 290 279 274 275 272 277 296 301 295 293 289 287 289 298 303 300 302 306 305 307 284 238 228 234 258 317 318 324 320 314 310 308 301 309 297 308 315 316 321 328 328 322 316 308 305 306 306 304 302 303 309 317 319 322 324 327 323 330 323 323 328 323 321 322 327 331 329 330 327 326 328 334
296 288 276 277 279 281 290 289 286 290 287 288 302 307 294 281 261 254 264 276 290 290 289 292 294 290 289 292 297 296 294 305 304 317 318 310 312 273 227 223 263 296 320 318 316 313 312 307 301 308 313 320 322 325 328 323 310 309 300 302 302 304 299 300 303 304 307 315 315 312 311 316 319 315 320 316 321 324 322 322 321 324 320 322 323 325 326
290 283 279 274 279 294 287 279 273 276 284 303 307 299 290 279 272 246 243 279 289 291 285 277 279 284 290 290 279 270 275 278 276 286 303 308 316 301 245 293 314 316 312 318 312 310 303 301 306 316 319 323 324 328 326 318 307 304 301 301 297 300 296 299 297 304 302 300 300 298 297 303 299 303 302 301 306 313 314 314 316 323 323 322 327 329 327
288 287 283 291 291 280 274 273 284 311 307 307 306 294 278 259 259 278 275 276 287 282 269 268 273 274 273 275 280 281 279 276 253 230 224 226 241 267 306 315 309 313 313 315 304 302 295 306 316 320 324 327 327 329 326 316 308 303 300 304 303 301 304 298 306 305 303 302 300 299 298 295 304 303 300 292 294 303 306 316 322 321 319 315 317 319 322
291 297 296 281 274 278 290 294 296 290 289 302 293 291 301 311 309 298 289 282 272 274 278 274 270 268 260 253 257 288 305 314 305 240 228 241 253 272 280 295 304 307 312 310 305 302 304 312 318 322 326 325 328 331 323 311 312 305 309 303 309 308 308 309 311 306 306 298 304 309 312 308 303 300 303 307 306 311 312 312 311 317 316 320 323 327 328
297 293 290 293 293 296 310 313 318 295 279 266 267 284 293 307 305 295 293 291 289 288 287 283 276 277 277 270 249 229 228 226 294 305 218 211 248 263 296 302 299 306 309 308 306 303 312 317 322 324 325 325 327 324 314 309 306 305 303 305 308 308 310 312 312 310 309 314 317 314 312 320 315 316 309 307 308 313 303 308 309 311 314 316 314 318 320
277 274 281 286 288 293 296 297 299 292 276 279 289 282 298 309 305 298 296 300 303 301 290 284 284 284 285 275 268 254 231 210 206 257 290 315 314 307 299 297 300 303 303 298 303 302 313 321 323 324 322 324 320 314 308 306 303 305 303 304 300 309 311 303 296 301 310 314 315 314 309 311 318 316 313 313 311 304 308 313 309 302 299 317 326 319 320
289 299 302 304 301 303 300 304 290 272 278 291 286 287 302 335 325 307 310 310 306 301 299 288 287 288 280 286 288 275 274 251 253 264 275 283 289 290 289 294 297 304 307 306 304 310 318 318 321 319 319 317 314 313 309 306 301 301 302 311 315 306 306 311 314 319 317 311 307 307 314 315 314 319 317 310 309 313 320 315 316 320 330 328 316 316 318
310 303 290 283 282 279 274 257 256 276 288 284 280 284 292 294 278 286 297 299 310 312 312 313 298 272 281 281 284 292 291 290 281 275 284 288 289 293 296 297 299 304 308 308 306 304 307 310 307 309 313 313 313 311 307 305 307 311 314 312 309 312 312 311 308 308 310 307 308 316 316 320 317 308 309 315 318 317 315 318 320 318 315 312 315 307 305
269 270 280 280 277 279 280 279 271 257 255 270 268 278 286 280 290 295 292 278 274 284 305 319 314 303 259 299 303 298 286 282 288 295 291 290 292 290 295 302 305 303 302 301 299 298 298 304 310 313 314 313 307 305 307 311 309 312 315 315 314 306 303 307 313 313 305 311 323 320 322 321 310 312 318 321 316 314 314 313 309 310 310 311 308 309 306